CYZ9102 ZSNJ-ZBTJ

Flight info

Callsign CYZ9102
Flight time 1h 31m
Altitude 31100
Route OF A470 DPX A593 DALIM W157 AVBOX
Aircraft B77L/H-SDE2E3FGILRWXY/LB2

Departure

Time 2026-04-23 00:42
Airport Nanjing Lukou International Airport (ZSNJ)

Arrival

Time 2026-04-23 02:14
Airport Tianjin Binhai International Airport (ZBTJ)
Time Latitude Longitude Altitude Speed Heading
2026-04-23 00:02 31.72962 118.84758 63 ft 0 kts 57°
2026-04-23 00:33 31.72957 118.84750 63 ft 2 kts 57°
2026-04-23 00:33 31.72949 118.84735 63 ft 2 kts 57°
2026-04-23 00:33 31.72940 118.84721 63 ft 2 kts 57°
2026-04-23 00:33 31.72932 118.84706 63 ft 2 kts 57°
2026-04-23 00:34 31.72926 118.84695 63 ft 0 kts 57°
2026-04-23 00:34 31.72918 118.84682 63 ft 2 kts 30°
2026-04-23 00:34 31.72904 118.84677 63 ft 2 kts 359°
2026-04-23 00:34 31.72890 118.84681 63 ft 1 kts 330°
2026-04-23 00:35 31.72885 118.84684 63 ft 0 kts 328°
2026-04-23 00:38 31.72891 118.84679 63 ft 1 kts 328°
2026-04-23 00:38 31.72905 118.84669 63 ft 3 kts 328°
2026-04-23 00:38 31.72929 118.84651 63 ft 4 kts 328°
2026-04-23 00:39 31.72963 118.84627 63 ft 6 kts 328°
2026-04-23 00:39 31.73005 118.84601 63 ft 7 kts 352°
2026-04-23 00:39 31.73051 118.84631 63 ft 8 kts 51°
2026-04-23 00:39 31.73085 118.84692 63 ft 9 kts 57°
2026-04-23 00:40 31.73129 118.84749 63 ft 8 kts 12°
2026-04-23 00:40 31.73180 118.84731 63 ft 8 kts 330°
2026-04-23 00:40 31.73235 118.84692 63 ft 9 kts 328°
2026-04-23 00:40 31.73295 118.84649 63 ft 10 kts 328°
2026-04-23 00:41 31.73342 118.84620 63 ft 6 kts 352°
2026-04-23 00:41 31.73385 118.84644 63 ft 7 kts 47°
2026-04-23 00:41 31.73401 118.84673 63 ft 0 kts 58°
2026-04-23 00:41 31.73404 118.84677 63 ft 6 kts 58°
2026-04-23 00:42 31.73556 118.84959 63 ft 83 kts 58°
2026-04-23 00:42 31.74014 118.85811 64 ft 162 kts 58°
2026-04-23 00:42 31.74711 118.87118 422 ft 201 kts 58°
2026-04-23 00:42 31.75425 118.88469 1829 ft 190 kts 57°
2026-04-23 00:43 31.76069 118.89671 2830 ft 181 kts 57°
2026-04-23 00:43 31.76782 118.91003 3247 ft 203 kts 57°
2026-04-23 00:43 31.77557 118.92456 3832 ft 217 kts 57°
2026-04-23 00:43 31.78352 118.93950 4723 ft 217 kts 57°
2026-04-23 00:44 31.79149 118.95446 5497 ft 221 kts 57°
2026-04-23 00:44 31.79968 118.96985 6266 ft 225 kts 57°
2026-04-23 00:44 31.80805 118.98559 6824 ft 229 kts 57°
2026-04-23 00:44 31.81653 119.00153 6908 ft 230 kts 57°
2026-04-23 00:45 31.82510 119.01765 6907 ft 231 kts 57°
2026-04-23 00:45 31.83356 119.03358 6900 ft 230 kts 57°
2026-04-23 00:45 31.84210 119.04964 6907 ft 231 kts 57°
2026-04-23 00:45 31.85055 119.06557 6911 ft 231 kts 57°
2026-04-23 00:46 31.85909 119.08164 6915 ft 231 kts 57°
2026-04-23 00:46 31.86765 119.09778 6908 ft 231 kts 57°
2026-04-23 00:46 31.87695 119.11295 6894 ft 231 kts 43°
2026-04-23 00:46 31.89063 119.12280 6903 ft 231 kts 19°
2026-04-23 00:47 31.90660 119.12498 6905 ft 233 kts 355°
2026-04-23 00:47 31.92193 119.11905 6888 ft 237 kts 330°
2026-04-23 00:47 31.93398 119.10557 6886 ft 243 kts 305°
2026-04-23 00:47 31.94008 119.08699 6903 ft 248 kts 284°
2026-04-23 00:48 31.94304 119.06678 6897 ft 250 kts 281°
2026-04-23 00:48 31.94319 119.04636 6891 ft 252 kts 256°
2026-04-23 00:48 31.93605 119.02695 6906 ft 268 kts 241°
2026-04-23 00:48 31.92650 119.00835 6884 ft 267 kts 238°
2026-04-23 00:49 31.91655 118.98978 6905 ft 267 kts 238°
2026-04-23 00:49 31.90663 118.97114 6908 ft 269 kts 238°
2026-04-23 00:49 31.89684 118.95270 6907 ft 268 kts 238°
2026-04-23 00:49 31.88691 118.93397 6909 ft 267 kts 238°
2026-04-23 00:50 31.87719 118.91563 6908 ft 267 kts 240°
2026-04-23 00:50 31.87048 118.89477 7077 ft 279 kts 267°
2026-04-23 00:50 31.87269 118.87315 8137 ft 265 kts 293°
2026-04-23 00:50 31.88167 118.85484 8892 ft 265 kts 313°
2026-04-23 00:51 31.89655 118.84140 9212 ft 281 kts 336°
2026-04-23 00:51 31.91518 118.83310 9884 ft 287 kts 343°
2026-04-23 00:51 31.93437 118.82648 10553 ft 294 kts 345°
2026-04-23 00:51 31.95463 118.81994 10906 ft 314 kts 345°
2026-04-23 00:52 31.97650 118.81296 11321 ft 333 kts 345°
2026-04-23 00:52 31.99937 118.80559 11753 ft 352 kts 344°
2026-04-23 00:52 32.02364 118.79749 12276 ft 369 kts 343°
2026-04-23 00:52 32.04841 118.78920 13126 ft 375 kts 343°
2026-04-23 00:53 32.07367 118.78072 14138 ft 378 kts 342°
2026-04-23 00:53 32.09898 118.77221 15069 ft 386 kts 342°
2026-04-23 00:53 32.12523 118.76338 15998 ft 394 kts 341°
2026-04-23 00:53 32.15161 118.75453 17003 ft 397 kts 341°
2026-04-23 00:54 32.17830 118.74555 17933 ft 403 kts 341°
2026-04-23 00:54 32.20528 118.73647 18822 ft 409 kts 340°
2026-04-23 00:54 32.23262 118.72727 19760 ft 413 kts 340°
2026-04-23 00:54 32.26040 118.71793 20689 ft 417 kts 339°
2026-04-23 00:55 32.28815 118.70857 21516 ft 422 kts 339°
2026-04-23 00:55 32.31665 118.69898 22379 ft 426 kts 338°
2026-04-23 00:55 32.34513 118.68937 23204 ft 430 kts 338°
2026-04-23 00:55 32.37384 118.67968 23965 ft 435 kts 337°
2026-04-23 00:56 32.40326 118.66975 24728 ft 440 kts 337°
2026-04-23 00:56 32.43264 118.65982 25573 ft 443 kts 336°
2026-04-23 00:56 32.46227 118.64981 26419 ft 446 kts 336°
2026-04-23 00:56 32.49233 118.63965 27256 ft 450 kts 335°
2026-04-23 00:57 32.52242 118.62946 28051 ft 454 kts 335°
2026-04-23 00:57 32.55252 118.61925 28835 ft 458 kts 335°
2026-04-23 00:57 32.58339 118.60879 29597 ft 462 kts 335°
2026-04-23 00:57 32.61416 118.59837 30536 ft 463 kts 334°
2026-04-23 00:58 32.64521 118.58786 31583 ft 460 kts 334°
2026-04-23 00:58 32.67565 118.57753 32058 ft 458 kts 334°
2026-04-23 00:58 32.70604 118.56689 32109 ft 455 kts 333°
2026-04-23 00:59 32.76642 118.54529 32101 ft 452 kts 333°
2026-04-23 00:59 32.82669 118.52370 32100 ft 451 kts 333°
2026-04-23 01:00 32.88620 118.50239 32109 ft 450 kts 333°
2026-04-23 01:00 32.94624 118.48085 32107 ft 452 kts 333°
2026-04-23 01:01 33.00622 118.45933 32105 ft 451 kts 333°
2026-04-23 01:01 33.06688 118.43753 32106 ft 453 kts 332°
2026-04-23 01:02 33.12730 118.41581 32103 ft 451 kts 333°
2026-04-23 01:02 33.18697 118.39432 32100 ft 449 kts 333°
2026-04-23 01:03 33.24701 118.37267 32104 ft 450 kts 332°
2026-04-23 01:03 33.30716 118.35098 32105 ft 455 kts 332°
2026-04-23 01:04 33.36771 118.32917 32132 ft 453 kts 332°
2026-04-23 01:04 33.45801 118.29657 32134 ft 449 kts 332°
2026-04-23 01:05 33.51807 118.27482 32133 ft 451 kts 331°
2026-04-23 01:05 33.57816 118.25302 32137 ft 452 kts 332°
2026-04-23 01:06 33.63816 118.23126 32139 ft 450 kts 332°
2026-04-23 01:06 33.69845 118.20932 32134 ft 452 kts 331°
2026-04-23 01:07 33.75895 118.18728 32142 ft 455 kts 331°
2026-04-23 01:07 33.81901 118.16543 32141 ft 448 kts 331°
2026-04-23 01:08 33.87931 118.14346 32142 ft 457 kts 330°
2026-04-23 01:08 33.93980 118.12151 32142 ft 450 kts 331°
2026-04-23 01:09 33.99942 118.09980 32135 ft 451 kts 331°
2026-04-23 01:09 34.05977 118.07785 32139 ft 454 kts 330°
2026-04-23 01:10 34.12030 118.05587 32131 ft 452 kts 331°
2026-04-23 01:10 34.18084 118.03386 32128 ft 453 kts 331°
2026-04-23 01:11 34.24139 118.01180 32136 ft 453 kts 331°
2026-04-23 01:11 34.30179 117.98985 32134 ft 458 kts 332°
2026-04-23 01:12 34.36290 117.96812 32134 ft 457 kts 332°
2026-04-23 01:12 34.42370 117.94646 32134 ft 457 kts 332°
2026-04-23 01:13 34.48502 117.92454 32135 ft 460 kts 332°
2026-04-23 01:13 34.54606 117.90273 32132 ft 454 kts 333°
2026-04-23 01:14 34.60678 117.88094 32135 ft 459 kts 333°
2026-04-23 01:14 34.66807 117.85893 32133 ft 458 kts 333°
2026-04-23 01:15 34.72934 117.83691 32137 ft 457 kts 333°
2026-04-23 01:15 34.79059 117.81482 32137 ft 461 kts 333°
2026-04-23 01:16 34.85178 117.79263 32134 ft 456 kts 333°
2026-04-23 01:16 34.91306 117.77016 32128 ft 462 kts 333°
2026-04-23 01:17 34.97444 117.74773 32140 ft 459 kts 334°
2026-04-23 01:17 35.03520 117.72548 32130 ft 457 kts 334°
2026-04-23 01:18 35.09672 117.70290 32141 ft 459 kts 334°
2026-04-23 01:18 35.15781 117.68049 32127 ft 462 kts 334°
2026-04-23 01:19 35.21936 117.65790 32135 ft 459 kts 334°
2026-04-23 01:19 35.28083 117.63528 32124 ft 459 kts 335°
2026-04-23 01:20 35.34199 117.61275 32126 ft 460 kts 335°
2026-04-23 01:20 35.40288 117.59028 32126 ft 458 kts 335°
2026-04-23 01:21 35.46440 117.56752 32125 ft 461 kts 335°
2026-04-23 01:21 35.52527 117.54500 32117 ft 457 kts 335°
2026-04-23 01:22 35.58655 117.52227 32123 ft 458 kts 335°
2026-04-23 01:22 35.64759 117.49960 32119 ft 459 kts 336°
2026-04-23 01:23 35.70863 117.47689 32115 ft 458 kts 336°
2026-04-23 01:23 35.76973 117.45412 32114 ft 459 kts 336°
2026-04-23 01:24 35.83049 117.43144 32119 ft 459 kts 336°
2026-04-23 01:24 35.89160 117.40860 32117 ft 457 kts 336°
2026-04-23 01:25 35.95274 117.38570 32111 ft 459 kts 337°
2026-04-23 01:25 36.01395 117.36277 32114 ft 460 kts 337°
2026-04-23 01:26 36.07542 117.34009 32127 ft 457 kts 336°
2026-04-23 01:26 36.13638 117.31757 32121 ft 459 kts 337°
2026-04-23 01:27 36.19761 117.29491 32123 ft 457 kts 337°
2026-04-23 01:27 36.25866 117.27226 32124 ft 457 kts 337°
2026-04-23 01:28 36.31974 117.24956 32124 ft 458 kts 337°
2026-04-23 01:28 36.38048 117.22696 32132 ft 457 kts 337°
2026-04-23 01:29 36.44078 117.20126 32133 ft 454 kts 332°
2026-04-23 01:29 36.49880 117.17112 32129 ft 452 kts 331°
2026-04-23 01:30 36.55723 117.14067 32123 ft 455 kts 332°
2026-04-23 01:30 36.61565 117.11021 32127 ft 454 kts 332°
2026-04-23 01:31 36.67357 117.07998 32127 ft 455 kts 332°
2026-04-23 01:31 36.73211 117.04939 32116 ft 453 kts 332°
2026-04-23 01:32 36.79029 117.01891 32123 ft 455 kts 332°
2026-04-23 01:32 36.84904 116.98811 32119 ft 454 kts 332°
2026-04-23 01:33 36.90730 116.95751 32115 ft 454 kts 332°
2026-04-23 01:33 36.96533 116.92698 32115 ft 455 kts 332°
2026-04-23 01:34 37.02375 116.89619 32112 ft 453 kts 332°
2026-04-23 01:34 37.08190 116.86550 32115 ft 453 kts 333°
2026-04-23 01:35 37.13999 116.83478 31923 ft 453 kts 333°
2026-04-23 01:35 37.16881 116.81953 31559 ft 448 kts 333°
2026-04-23 01:35 37.19771 116.80424 31171 ft 442 kts 333°
2026-04-23 01:36 37.22608 116.79066 30799 ft 438 kts 339°
2026-04-23 01:36 37.25541 116.77941 30417 ft 433 kts 340°
2026-04-23 01:36 37.28404 116.76866 29996 ft 428 kts 340°
2026-04-23 01:36 37.31235 116.75801 29562 ft 422 kts 340°
2026-04-23 01:37 37.34018 116.74753 29141 ft 418 kts 340°
2026-04-23 01:37 37.36787 116.73708 28711 ft 415 kts 341°
2026-04-23 01:37 37.39545 116.72665 28280 ft 415 kts 341°
2026-04-23 01:37 37.42321 116.71614 27842 ft 413 kts 341°
2026-04-23 01:38 37.45060 116.70577 27409 ft 410 kts 341°
2026-04-23 01:38 37.47751 116.69557 26987 ft 406 kts 341°
2026-04-23 01:38 37.50468 116.68526 26557 ft 403 kts 342°
2026-04-23 01:38 37.53117 116.67520 26120 ft 400 kts 342°
2026-04-23 01:39 37.55797 116.66502 25679 ft 398 kts 342°
2026-04-23 01:39 37.58424 116.65502 25251 ft 395 kts 342°
2026-04-23 01:39 37.61032 116.64510 24807 ft 392 kts 342°
2026-04-23 01:39 37.63661 116.63509 24356 ft 390 kts 342°
2026-04-23 01:40 37.66227 116.62530 23911 ft 387 kts 342°
2026-04-23 01:40 37.68799 116.61549 23466 ft 383 kts 342°
2026-04-23 01:40 37.71321 116.60586 23026 ft 379 kts 342°
2026-04-23 01:40 37.73837 116.59625 22584 ft 375 kts 342°
2026-04-23 01:41 37.76337 116.58669 22142 ft 372 kts 342°
2026-04-23 01:41 37.78778 116.57735 21706 ft 369 kts 342°
2026-04-23 01:41 37.81242 116.56792 21264 ft 367 kts 342°
2026-04-23 01:41 37.83685 116.55856 20819 ft 364 kts 342°
2026-04-23 01:42 37.86081 116.54938 20379 ft 362 kts 343°
2026-04-23 01:42 37.88492 116.54013 19943 ft 360 kts 343°
2026-04-23 01:42 37.90879 116.53096 19546 ft 357 kts 343°
2026-04-23 01:42 37.93241 116.52189 19158 ft 356 kts 343°
2026-04-23 01:43 37.95596 116.51217 18769 ft 354 kts 339°
2026-04-23 01:43 37.97804 116.49944 18381 ft 351 kts 332°
2026-04-23 01:43 37.99893 116.48322 17984 ft 349 kts 326°
2026-04-23 01:43 38.01850 116.46540 17597 ft 348 kts 325°
2026-04-23 01:44 38.03824 116.44728 17203 ft 348 kts 325°
2026-04-23 01:44 38.05782 116.42931 16808 ft 345 kts 325°
2026-04-23 01:44 38.07702 116.41169 16421 ft 344 kts 325°
2026-04-23 01:44 38.09646 116.39385 16031 ft 342 kts 324°
2026-04-23 01:45 38.11591 116.37599 15644 ft 341 kts 324°
2026-04-23 01:45 38.13497 116.35849 15262 ft 339 kts 324°
2026-04-23 01:45 38.15418 116.34084 14878 ft 338 kts 324°
2026-04-23 01:45 38.17297 116.32356 14502 ft 336 kts 324°
2026-04-23 01:46 38.19212 116.30643 14122 ft 334 kts 327°
2026-04-23 01:46 38.21220 116.29204 13745 ft 331 kts 334°
2026-04-23 01:46 38.23340 116.28071 13364 ft 327 kts 340°
2026-04-23 01:46 38.25494 116.27271 12988 ft 323 kts 346°
2026-04-23 01:47 38.27697 116.26784 12613 ft 320 kts 352°
2026-04-23 01:47 38.29915 116.26614 12237 ft 318 kts 359°
2026-04-23 01:47 38.32115 116.26756 11873 ft 316 kts
2026-04-23 01:47 38.34273 116.27215 11772 ft 315 kts 11°
2026-04-23 01:48 38.36423 116.27946 11770 ft 318 kts 14°
2026-04-23 01:48 38.38538 116.28715 11773 ft 318 kts 14°
2026-04-23 01:48 38.40683 116.29476 11773 ft 315 kts 14°
2026-04-23 01:48 38.42775 116.30205 11560 ft 308 kts 13°
2026-04-23 01:49 38.44804 116.30906 11385 ft 299 kts 13°
2026-04-23 01:49 38.46793 116.31592 11234 ft 293 kts 13°
2026-04-23 01:49 38.48749 116.32265 11089 ft 293 kts 13°
2026-04-23 01:49 38.50723 116.32946 10939 ft 293 kts 13°
2026-04-23 01:50 38.52686 116.33624 10789 ft 292 kts 13°
2026-04-23 01:50 38.54640 116.34299 10640 ft 291 kts 13°
2026-04-23 01:50 38.56594 116.34998 10492 ft 291 kts 16°
2026-04-23 01:50 38.58466 116.35925 10343 ft 291 kts 23°
2026-04-23 01:51 38.60268 116.37152 10192 ft 291 kts 30°
2026-04-23 01:51 38.61937 116.38644 10042 ft 292 kts 37°
2026-04-23 01:51 38.63432 116.40354 9893 ft 292 kts 44°
2026-04-23 01:51 38.64782 116.42320 9741 ft 294 kts 51°
2026-04-23 01:52 38.65938 116.44484 9592 ft 294 kts 58°
2026-04-23 01:52 38.66873 116.46786 9444 ft 296 kts 65°
2026-04-23 01:52 38.67594 116.49255 9299 ft 297 kts 72°
2026-04-23 01:52 38.68154 116.51824 9147 ft 297 kts 74°
2026-04-23 01:53 38.68705 116.54344 9003 ft 297 kts 73°
2026-04-23 01:53 38.69286 116.56889 8859 ft 297 kts 72°
2026-04-23 01:53 38.69876 116.59421 8713 ft 296 kts 72°
2026-04-23 01:53 38.70467 116.61949 8588 ft 296 kts 72°
2026-04-23 01:54 38.71057 116.64482 8470 ft 295 kts 72°
2026-04-23 01:54 38.71636 116.66994 8345 ft 294 kts 73°
2026-04-23 01:54 38.72209 116.69478 8216 ft 293 kts 73°
2026-04-23 01:54 38.72788 116.71993 8089 ft 294 kts 73°
2026-04-23 01:55 38.73368 116.74509 7965 ft 294 kts 73°
2026-04-23 01:55 38.73938 116.76987 7840 ft 293 kts 73°
2026-04-23 01:55 38.74517 116.79507 7701 ft 294 kts 73°
2026-04-23 01:55 38.75092 116.82010 7557 ft 293 kts 73°
2026-04-23 01:56 38.75662 116.84498 7416 ft 292 kts 73°
2026-04-23 01:56 38.76232 116.86985 7266 ft 292 kts 74°
2026-04-23 01:56 38.76807 116.89497 7120 ft 293 kts 74°
2026-04-23 01:56 38.77371 116.91968 6978 ft 291 kts 74°
2026-04-23 01:57 38.77943 116.94474 6827 ft 292 kts 74°
2026-04-23 01:57 38.78503 116.96983 6679 ft 291 kts 77°
2026-04-23 01:57 38.78809 116.99530 6528 ft 291 kts 88°
2026-04-23 01:57 38.78760 117.02135 6381 ft 291 kts 98°
2026-04-23 01:58 38.78358 117.04661 6235 ft 287 kts 109°
2026-04-23 01:58 38.77658 117.07044 6091 ft 284 kts 114°
2026-04-23 01:58 38.76909 117.09351 5944 ft 283 kts 115°
2026-04-23 01:58 38.76149 117.11694 5800 ft 282 kts 114°
2026-04-23 01:59 38.75408 117.13980 5660 ft 281 kts 114°
2026-04-23 01:59 38.74660 117.16290 5523 ft 281 kts 115°
2026-04-23 01:59 38.73992 117.18636 5382 ft 281 kts 105°
2026-04-23 01:59 38.73730 117.21108 5228 ft 281 kts 92°
2026-04-23 02:00 38.73922 117.23606 5073 ft 280 kts 78°
2026-04-23 02:00 38.74546 117.25948 4924 ft 281 kts 65°
2026-04-23 02:00 38.75394 117.28188 4870 ft 281 kts 64°
2026-04-23 02:00 38.76255 117.30434 4861 ft 281 kts 64°
2026-04-23 02:01 38.77117 117.32691 4853 ft 282 kts 64°
2026-04-23 02:01 38.77977 117.34950 4861 ft 281 kts 64°
2026-04-23 02:01 38.78896 117.37169 4862 ft 282 kts 53°
2026-04-23 02:01 38.80304 117.38860 4863 ft 281 kts 29°
2026-04-23 02:02 38.82138 117.39705 4849 ft 278 kts
2026-04-23 02:02 38.84026 117.39558 4860 ft 273 kts 341°
2026-04-23 02:02 38.85802 117.38704 4729 ft 267 kts 333°
2026-04-23 02:02 38.87460 117.37739 4624 ft 260 kts 332°
2026-04-23 02:03 38.89079 117.36738 4532 ft 259 kts 331°
2026-04-23 02:03 38.90710 117.35719 4426 ft 258 kts 331°
2026-04-23 02:03 38.92315 117.34718 4318 ft 258 kts 331°
2026-04-23 02:03 38.93942 117.33705 4216 ft 258 kts 331°
2026-04-23 02:04 38.95551 117.32703 4122 ft 258 kts 331°
2026-04-23 02:04 38.97174 117.31692 4024 ft 258 kts 331°
2026-04-23 02:04 38.98779 117.30693 3929 ft 258 kts 332°
2026-04-23 02:04 39.00408 117.29672 3832 ft 258 kts 331°
2026-04-23 02:05 39.02002 117.28657 3744 ft 257 kts 331°
2026-04-23 02:05 39.03610 117.27632 3640 ft 251 kts 331°
2026-04-23 02:05 39.05138 117.26660 3536 ft 242 kts 331°
2026-04-23 02:05 39.06628 117.25712 3438 ft 235 kts 331°
2026-04-23 02:06 39.08091 117.24779 3343 ft 232 kts 331°
2026-04-23 02:06 39.09528 117.23863 3249 ft 231 kts 331°
2026-04-23 02:06 39.10973 117.22942 3151 ft 231 kts 331°
2026-04-23 02:06 39.12407 117.22028 3054 ft 231 kts 331°
2026-04-23 02:07 39.13840 117.21111 2975 ft 222 kts 331°
2026-04-23 02:07 39.15184 117.20252 2965 ft 214 kts 331°
2026-04-23 02:07 39.16504 117.19407 2967 ft 211 kts 331°
2026-04-23 02:07 39.17831 117.18555 2966 ft 211 kts 331°
2026-04-23 02:08 39.19133 117.17722 2966 ft 211 kts 331°
2026-04-23 02:08 39.20460 117.16873 2924 ft 212 kts 333°
2026-04-23 02:08 39.21870 117.16487 2818 ft 209 kts
2026-04-23 02:08 39.23199 117.17107 2701 ft 200 kts 37°
2026-04-23 02:09 39.24068 117.18432 2600 ft 194 kts 60°
2026-04-23 02:09 39.24713 117.19949 2501 ft 192 kts 64°
2026-04-23 02:09 39.25312 117.21499 2398 ft 191 kts 65°
2026-04-23 02:09 39.25893 117.23034 2297 ft 191 kts 66°
2026-04-23 02:10 39.26136 117.24653 2184 ft 182 kts 102°
2026-04-23 02:10 39.25610 117.26037 2065 ft 167 kts 138°
2026-04-23 02:10 39.24721 117.26937 1981 ft 161 kts 144°
2026-04-23 02:10 39.23812 117.27721 1965 ft 157 kts 156°
2026-04-23 02:11 39.22830 117.28283 1961 ft 151 kts 158°
2026-04-23 02:11 39.21887 117.28849 1771 ft 149 kts 157°
2026-04-23 02:11 39.20957 117.29417 1581 ft 147 kts 157°
2026-04-23 02:11 39.20031 117.29982 1389 ft 146 kts 157°
2026-04-23 02:12 39.19105 117.30545 1174 ft 146 kts 155°
2026-04-23 02:12 39.18198 117.31119 952 ft 145 kts 158°
2026-04-23 02:12 39.17282 117.31664 754 ft 144 kts 155°
2026-04-23 02:12 39.16380 117.32230 551 ft 144 kts 157°
2026-04-23 02:13 39.15454 117.32768 373 ft 144 kts 155°
2026-04-23 02:13 39.14558 117.33330 226 ft 143 kts 156°
2026-04-23 02:13 39.13658 117.33872 60 ft 144 kts 155°
2026-04-23 02:13 39.12835 117.34371 24 ft 108 kts 153°
2026-04-23 02:14 39.12328 117.34687 31 ft 44 kts 155°
2026-04-23 02:14 39.12209 117.34736 30 ft 11 kts 171°
2026-04-23 02:14 39.12127 117.34747 30 ft 12 kts 176°
2026-04-23 02:14 39.12051 117.34749 30 ft 8 kts 186°
2026-04-23 02:15 39.11919 117.34724 30 ft 10 kts 217°
2026-04-23 02:15 39.11908 117.34691 31 ft 1 kts 284°
2026-04-23 02:15 39.11914 117.34679 31 ft 1 kts 309°
2026-04-23 02:16 39.11924 117.34666 31 ft 2 kts 319°
2026-04-23 02:16 39.11941 117.34652 32 ft 3 kts 328°
2026-04-23 02:16 39.11969 117.34632 32 ft 5 kts 333°
2026-04-23 02:16 39.12006 117.34609 32 ft 6 kts 334°
2026-04-23 02:17 39.12050 117.34581 33 ft 7 kts 334°
2026-04-23 02:17 39.12102 117.34550 34 ft 8 kts 334°
2026-04-23 02:17 39.12150 117.34520 34 ft 7 kts 334°
2026-04-23 02:17 39.12199 117.34489 35 ft 8 kts 334°
2026-04-23 02:18 39.12258 117.34454 35 ft 10 kts 334°
2026-04-23 02:18 39.12328 117.34411 34 ft 11 kts 334°
2026-04-23 02:18 39.12384 117.34373 33 ft 7 kts 315°
2026-04-23 02:18 39.12394 117.34312 33 ft 6 kts 260°
2026-04-23 02:19 39.12382 117.34274 34 ft 4 kts 243°
2026-04-23 02:19 39.12373 117.34248 34 ft 2 kts 244°
2026-04-23 02:19 39.12370 117.34242 34 ft 0 kts 244°